Year,Month,Day,Hour,Minute,Value (Times are PST for temperature in C)
2019,09,27,00,00,10.70
2019,09,27,00,01,10.60
2019,09,27,00,02,10.60
2019,09,27,00,03,10.60
2019,09,27,00,04,10.60
2019,09,27,00,05,10.60
2019,09,27,00,06,10.60
2019,09,27,00,07,10.60
2019,09,27,00,08,10.60
2019,09,27,00,09,10.60
2019,09,27,00,10,10.60
2019,09,27,00,11,10.60
2019,09,27,00,12,10.60
2019,09,27,00,13,10.60
2019,09,27,00,14,10.60
2019,09,27,00,15,10.60
2019,09,27,00,16,10.60
2019,09,27,00,17,10.60
2019,09,27,00,18,10.60
2019,09,27,00,19,10.60
2019,09,27,00,20,10.60
2019,09,27,00,21,10.60
2019,09,27,00,22,10.60
2019,09,27,00,23,10.60
2019,09,27,00,24,10.50
2019,09,27,00,25,10.50
2019,09,27,00,26,10.40
2019,09,27,00,27,10.40
2019,09,27,00,28,10.40
2019,09,27,00,29,10.40
2019,09,27,00,30,10.30
2019,09,27,00,31,10.30
2019,09,27,00,32,10.30
2019,09,27,00,33,10.30
2019,09,27,00,34,10.30
2019,09,27,00,35,10.30
2019,09,27,00,36,10.30
2019,09,27,00,37,10.30
2019,09,27,00,38,10.20
2019,09,27,00,39,10.20
2019,09,27,00,40,10.10
2019,09,27,00,41,10.10
2019,09,27,00,42,10.00
2019,09,27,00,43,10.00
2019,09,27,00,44,10.00
2019,09,27,00,45,9.90
2019,09,27,00,46,9.90
2019,09,27,00,47,9.80
2019,09,27,00,48,9.80
2019,09,27,00,49,9.70
2019,09,27,00,50,9.60
2019,09,27,00,51,9.50
2019,09,27,00,52,9.40
2019,09,27,00,53,9.30
2019,09,27,00,54,9.30
2019,09,27,00,55,9.20
2019,09,27,00,56,9.20
2019,09,27,00,57,9.10
2019,09,27,00,58,9.10
2019,09,27,00,59,9.10
2019,09,27,01,00,9.00
2019,09,27,01,01,8.90
2019,09,27,01,02,8.90
2019,09,27,01,03,8.80
2019,09,27,01,04,8.80
2019,09,27,01,05,8.70
2019,09,27,01,06,8.70
2019,09,27,01,07,8.70
2019,09,27,01,08,8.70
2019,09,27,01,09,8.80
2019,09,27,01,10,8.80
2019,09,27,01,11,8.80
2019,09,27,01,12,8.70
2019,09,27,01,13,8.80
2019,09,27,01,14,8.80
2019,09,27,01,15,8.80
2019,09,27,01,16,8.80
2019,09,27,01,17,8.80
2019,09,27,01,18,8.80
2019,09,27,01,19,8.80
2019,09,27,01,20,8.80
2019,09,27,01,21,8.80
2019,09,27,01,22,8.80
2019,09,27,01,23,8.80
2019,09,27,01,24,8.80
2019,09,27,01,25,8.80
2019,09,27,01,26,8.80
2019,09,27,01,27,8.80
2019,09,27,01,28,8.80
2019,09,27,01,29,8.90
2019,09,27,01,30,8.90
2019,09,27,01,31,8.90
2019,09,27,01,32,9.00
2019,09,27,01,33,9.00
2019,09,27,01,34,9.10
2019,09,27,01,35,9.10
2019,09,27,01,36,9.10
2019,09,27,01,37,9.10
2019,09,27,01,38,9.00
2019,09,27,01,39,8.90
2019,09,27,01,40,8.90
2019,09,27,01,41,8.80
2019,09,27,01,42,8.80
2019,09,27,01,43,8.80
2019,09,27,01,44,8.80
2019,09,27,01,45,8.90
2019,09,27,01,46,8.90
2019,09,27,01,47,9.00
2019,09,27,01,48,9.10
2019,09,27,01,49,9.10
2019,09,27,01,50,9.10
2019,09,27,01,51,9.20
2019,09,27,01,52,9.30
2019,09,27,01,53,9.40
2019,09,27,01,54,9.40
2019,09,27,01,55,9.40
2019,09,27,01,56,9.40
2019,09,27,01,57,9.30
2019,09,27,01,58,9.20
2019,09,27,01,59,9.10
2019,09,27,02,00,9.00
2019,09,27,02,01,8.90
2019,09,27,02,02,8.90
2019,09,27,02,03,8.80
2019,09,27,02,04,8.80
2019,09,27,02,05,8.70
2019,09,27,02,06,8.60
2019,09,27,02,07,8.50
2019,09,27,02,08,8.50
2019,09,27,02,09,8.40
2019,09,27,02,10,8.40
2019,09,27,02,11,8.40
2019,09,27,02,12,8.40
2019,09,27,02,13,8.30
2019,09,27,02,14,8.30
2019,09,27,02,15,8.30
2019,09,27,02,16,8.20
2019,09,27,02,17,8.10
2019,09,27,02,18,8.00
2019,09,27,02,19,8.00
2019,09,27,02,20,7.90
2019,09,27,02,21,7.90
2019,09,27,02,22,7.80
2019,09,27,02,23,7.80
2019,09,27,02,24,7.80
2019,09,27,02,25,7.70
2019,09,27,02,26,7.70
2019,09,27,02,27,7.70
2019,09,27,02,28,7.70
2019,09,27,02,29,7.70
2019,09,27,02,30,7.70
2019,09,27,02,31,7.70
2019,09,27,02,32,7.70
2019,09,27,02,33,7.60
2019,09,27,02,34,7.60
2019,09,27,02,35,7.60
2019,09,27,02,36,7.50
2019,09,27,02,37,7.50
2019,09,27,02,38,7.40
2019,09,27,02,39,7.40
2019,09,27,02,40,7.30
2019,09,27,02,41,7.30
2019,09,27,02,42,7.30
2019,09,27,02,43,7.30
2019,09,27,02,44,7.20
2019,09,27,02,45,7.20
2019,09,27,02,46,7.20
2019,09,27,02,47,7.30
2019,09,27,02,48,7.30
2019,09,27,02,49,7.30
2019,09,27,02,50,7.30
2019,09,27,02,51,7.30
2019,09,27,02,52,7.30
2019,09,27,02,53,7.30
2019,09,27,02,54,7.20
2019,09,27,02,55,7.20
2019,09,27,02,56,7.10
2019,09,27,02,57,7.10
2019,09,27,02,58,7.00
2019,09,27,02,59,7.00
2019,09,27,03,00,6.90
2019,09,27,03,01,6.90
2019,09,27,03,02,6.90
2019,09,27,03,03,6.90
2019,09,27,03,04,6.80
2019,09,27,03,05,6.80
2019,09,27,03,06,6.80
2019,09,27,03,07,6.80
2019,09,27,03,08,6.80
2019,09,27,03,09,6.80
2019,09,27,03,10,6.80
2019,09,27,03,11,6.80
2019,09,27,03,12,6.70
2019,09,27,03,13,6.70
2019,09,27,03,14,6.70
2019,09,27,03,15,6.60
2019,09,27,03,16,6.60
2019,09,27,03,17,6.60
2019,09,27,03,18,6.50
2019,09,27,03,19,6.50
2019,09,27,03,20,6.50
2019,09,27,03,21,6.50
2019,09,27,03,22,6.50
2019,09,27,03,23,6.50
2019,09,27,03,24,6.40
2019,09,27,03,25,6.40
2019,09,27,03,26,6.40
2019,09,27,03,27,6.40
2019,09,27,03,28,6.30
2019,09,27,03,29,6.30
2019,09,27,03,30,6.30
2019,09,27,03,31,6.30
2019,09,27,03,32,6.30
2019,09,27,03,33,6.30
2019,09,27,03,34,6.30
2019,09,27,03,35,6.30
2019,09,27,03,36,6.30
2019,09,27,03,37,6.30
2019,09,27,03,38,6.30
2019,09,27,03,39,6.30
2019,09,27,03,40,6.20
2019,09,27,03,41,6.20
2019,09,27,03,42,6.20
2019,09,27,03,43,6.20
2019,09,27,03,44,6.20
2019,09,27,03,45,6.20
2019,09,27,03,46,6.20
2019,09,27,03,47,6.20
2019,09,27,03,48,6.20
2019,09,27,03,49,6.20
2019,09,27,03,50,6.20
2019,09,27,03,51,6.30
2019,09,27,03,52,6.30
2019,09,27,03,53,6.30
2019,09,27,03,54,6.30
2019,09,27,03,55,6.20
2019,09,27,03,56,6.20
2019,09,27,03,57,6.20
2019,09,27,03,58,6.20
2019,09,27,03,59,6.20
2019,09,27,04,00,6.20
2019,09,27,04,01,6.20
2019,09,27,04,02,6.10
2019,09,27,04,03,6.10
2019,09,27,04,04,6.10
2019,09,27,04,05,6.20
2019,09,27,04,06,6.20
2019,09,27,04,07,6.20
2019,09,27,04,08,6.20
2019,09,27,04,09,6.10
2019,09,27,04,10,6.10
2019,09,27,04,11,6.10
2019,09,27,04,12,6.10
2019,09,27,04,13,6.10
2019,09,27,04,14,6.10
2019,09,27,04,15,6.20
2019,09,27,04,16,6.30
2019,09,27,04,17,6.40
2019,09,27,04,18,6.50
2019,09,27,04,19,6.60
2019,09,27,04,20,6.70
2019,09,27,04,21,6.70
2019,09,27,04,22,6.70
2019,09,27,04,23,6.70
2019,09,27,04,24,6.80
2019,09,27,04,25,6.80
2019,09,27,04,26,6.80
2019,09,27,04,27,6.80
2019,09,27,04,28,6.80
2019,09,27,04,29,6.90
2019,09,27,04,30,7.00
2019,09,27,04,31,7.10
2019,09,27,04,32,7.10
2019,09,27,04,33,7.20
2019,09,27,04,34,7.20
2019,09,27,04,35,7.20
2019,09,27,04,36,7.20
2019,09,27,04,37,7.10
2019,09,27,04,38,7.10
2019,09,27,04,39,7.00
2019,09,27,04,40,7.00
2019,09,27,04,41,6.90
2019,09,27,04,42,6.90
2019,09,27,04,43,6.90
2019,09,27,04,44,6.90
2019,09,27,04,45,6.90
2019,09,27,04,46,6.90
2019,09,27,04,47,6.90
2019,09,27,04,48,6.90
2019,09,27,04,49,6.90
2019,09,27,04,50,6.90
2019,09,27,04,51,6.90
2019,09,27,04,52,6.90
2019,09,27,04,53,6.90
2019,09,27,04,54,6.90
2019,09,27,04,55,7.00
2019,09,27,04,56,7.00
2019,09,27,04,57,7.10
2019,09,27,04,58,7.10
2019,09,27,04,59,7.10
2019,09,27,05,00,7.00
2019,09,27,05,01,7.00
2019,09,27,05,02,7.00
2019,09,27,05,03,7.00
2019,09,27,05,04,7.00
2019,09,27,05,05,7.00
2019,09,27,05,06,7.00
2019,09,27,05,07,7.00
2019,09,27,05,08,7.00
2019,09,27,05,09,6.90
2019,09,27,05,10,6.90
2019,09,27,05,11,6.90
2019,09,27,05,12,6.80
2019,09,27,05,13,6.80
2019,09,27,05,14,6.80
2019,09,27,05,15,6.70
2019,09,27,05,16,6.70
2019,09,27,05,17,6.60
2019,09,27,05,18,6.60
2019,09,27,05,19,6.60
2019,09,27,05,20,6.60
2019,09,27,05,21,6.60
2019,09,27,05,22,6.60
2019,09,27,05,23,6.60
2019,09,27,05,24,6.60
2019,09,27,05,25,6.70
2019,09,27,05,26,6.70
2019,09,27,05,27,6.80
2019,09,27,05,28,6.80
2019,09,27,05,29,6.80
2019,09,27,05,30,6.90
2019,09,27,05,31,6.90
2019,09,27,05,32,7.00
2019,09,27,05,33,7.00
2019,09,27,05,34,7.10
2019,09,27,05,35,7.10
2019,09,27,05,36,7.20
2019,09,27,05,37,7.20
2019,09,27,05,38,7.20
2019,09,27,05,39,7.20
2019,09,27,05,40,7.20
2019,09,27,05,41,7.20
2019,09,27,05,42,7.20
2019,09,27,05,43,7.30
2019,09,27,05,44,7.30
2019,09,27,05,45,7.30
2019,09,27,05,46,7.30
2019,09,27,05,47,7.30
2019,09,27,05,48,7.30
2019,09,27,05,49,7.40
2019,09,27,05,50,7.40
2019,09,27,05,51,7.50
2019,09,27,05,52,7.50
2019,09,27,05,53,7.50
2019,09,27,05,54,7.50
2019,09,27,05,55,7.50
2019,09,27,05,56,7.40
2019,09,27,05,57,7.40
2019,09,27,05,58,7.30
2019,09,27,05,59,7.30
2019,09,27,06,00,7.20
2019,09,27,06,01,7.20
2019,09,27,06,02,7.10
2019,09,27,06,03,7.10
2019,09,27,06,04,7.00
2019,09,27,06,05,7.00
2019,09,27,06,06,6.90
2019,09,27,06,07,6.90
2019,09,27,06,08,6.90
2019,09,27,06,09,6.80
2019,09,27,06,10,6.80
2019,09,27,06,11,6.70
2019,09,27,06,12,6.70
2019,09,27,06,13,6.70
2019,09,27,06,14,6.70
2019,09,27,06,15,6.60
2019,09,27,06,16,6.60
2019,09,27,06,17,6.60
2019,09,27,06,18,6.50
2019,09,27,06,19,6.50
2019,09,27,06,20,6.50
2019,09,27,06,21,6.50
2019,09,27,06,22,6.50
2019,09,27,06,23,6.60
2019,09,27,06,24,6.70
2019,09,27,06,25,6.70
2019,09,27,06,26,6.80
2019,09,27,06,27,6.90
2019,09,27,06,28,7.00
2019,09,27,06,29,7.10
2019,09,27,06,30,7.20
2019,09,27,06,31,7.30
2019,09,27,06,32,7.30
2019,09,27,06,33,7.30
2019,09,27,06,34,7.30
2019,09,27,06,35,7.40
2019,09,27,06,36,7.40
2019,09,27,06,37,7.40
2019,09,27,06,38,7.50
2019,09,27,06,39,7.60
2019,09,27,06,40,7.60
2019,09,27,06,41,7.70
2019,09,27,06,42,7.80
2019,09,27,06,43,7.90
2019,09,27,06,44,8.00
2019,09,27,06,45,8.10
2019,09,27,06,46,8.30
2019,09,27,06,47,8.40
2019,09,27,06,48,8.50
2019,09,27,06,49,8.60
2019,09,27,06,50,8.70
2019,09,27,06,51,8.80
2019,09,27,06,52,8.90
2019,09,27,06,53,9.00
2019,09,27,06,54,9.10
2019,09,27,06,55,9.10
2019,09,27,06,56,9.20
2019,09,27,06,57,9.20
2019,09,27,06,58,9.30
2019,09,27,06,59,9.30
2019,09,27,07,00,9.30
2019,09,27,07,01,9.30
2019,09,27,07,02,9.30
2019,09,27,07,03,9.30
2019,09,27,07,04,9.30
2019,09,27,07,05,9.20
2019,09,27,07,06,9.10
2019,09,27,07,07,9.00
2019,09,27,07,08,8.90
2019,09,27,07,09,8.90
2019,09,27,07,10,8.80
2019,09,27,07,11,8.70
2019,09,27,07,12,8.60
2019,09,27,07,13,8.50
2019,09,27,07,14,8.50
2019,09,27,07,15,8.50
2019,09,27,07,16,8.50
2019,09,27,07,17,8.60
2019,09,27,07,18,8.70
2019,09,27,07,19,8.70
2019,09,27,07,20,8.80
2019,09,27,07,21,8.80
2019,09,27,07,22,8.90
2019,09,27,07,23,8.90
2019,09,27,07,24,9.00
2019,09,27,07,25,9.10
2019,09,27,07,26,9.20
2019,09,27,07,27,9.20
2019,09,27,07,28,9.20
2019,09,27,07,29,9.20
2019,09,27,07,30,9.20
2019,09,27,07,31,9.20
2019,09,27,07,32,9.20
2019,09,27,07,33,9.20
2019,09,27,07,34,9.20
2019,09,27,07,35,9.20
2019,09,27,07,36,9.20
2019,09,27,07,37,9.20
2019,09,27,07,38,9.20
2019,09,27,07,39,9.20
2019,09,27,07,40,9.20
2019,09,27,07,41,9.20
2019,09,27,07,42,9.20
2019,09,27,07,43,9.20
2019,09,27,07,44,9.20
2019,09,27,07,45,9.20
2019,09,27,07,46,9.20
2019,09,27,07,47,9.20
2019,09,27,07,48,9.20
2019,09,27,07,49,9.10
2019,09,27,07,50,9.00
2019,09,27,07,51,8.90
2019,09,27,07,52,8.80
2019,09,27,07,53,8.80
2019,09,27,07,54,8.70
2019,09,27,07,55,8.70
2019,09,27,07,56,8.80
2019,09,27,07,57,8.80
2019,09,27,07,58,8.80
2019,09,27,07,59,8.80
2019,09,27,08,00,8.90
2019,09,27,08,01,8.90
2019,09,27,08,02,8.90
2019,09,27,08,03,9.00
2019,09,27,08,04,9.00
2019,09,27,08,05,9.10
2019,09,27,08,06,9.10
2019,09,27,08,07,9.20
2019,09,27,08,08,9.20
2019,09,27,08,09,9.30
2019,09,27,08,10,9.30
2019,09,27,08,11,9.40
2019,09,27,08,12,9.40
2019,09,27,08,13,9.40
2019,09,27,08,14,9.50
2019,09,27,08,15,9.60
2019,09,27,08,16,9.60
2019,09,27,08,17,9.60
2019,09,27,08,18,9.60
2019,09,27,08,19,9.70
2019,09,27,08,20,9.70
2019,09,27,08,21,9.70
2019,09,27,08,22,9.70
2019,09,27,08,23,9.70
2019,09,27,08,24,9.70
2019,09,27,08,25,9.80
2019,09,27,08,26,9.80
2019,09,27,08,27,9.80
2019,09,27,08,28,9.80
2019,09,27,08,29,9.80
2019,09,27,08,30,9.80
2019,09,27,08,31,9.80
2019,09,27,08,32,9.80
2019,09,27,08,33,9.80
2019,09,27,08,34,9.80
2019,09,27,08,35,9.80
2019,09,27,08,36,9.80
2019,09,27,08,37,9.80
2019,09,27,08,38,9.80
2019,09,27,08,39,9.90
2019,09,27,08,40,9.90
2019,09,27,08,41,9.90
2019,09,27,08,42,10.00
2019,09,27,08,43,10.00
2019,09,27,08,44,10.00
2019,09,27,08,45,10.10
2019,09,27,08,46,10.10
2019,09,27,08,47,10.10
2019,09,27,08,48,10.20
2019,09,27,08,49,10.20
2019,09,27,08,50,10.20
2019,09,27,08,51,10.30
2019,09,27,08,52,10.30
2019,09,27,08,53,10.40
2019,09,27,08,54,10.50
2019,09,27,08,55,10.50
2019,09,27,08,56,10.60
2019,09,27,08,57,10.60
2019,09,27,08,58,10.70
2019,09,27,08,59,10.70
2019,09,27,09,00,10.70
2019,09,27,09,01,10.80
2019,09,27,09,02,10.80
2019,09,27,09,03,10.80
2019,09,27,09,04,10.90
2019,09,27,09,05,10.90
2019,09,27,09,06,10.90
2019,09,27,09,07,11.00
2019,09,27,09,08,11.00
2019,09,27,09,09,11.00
2019,09,27,09,10,11.10
2019,09,27,09,11,11.10
2019,09,27,09,12,11.20
2019,09,27,09,13,11.20
2019,09,27,09,14,11.20
2019,09,27,09,15,11.20
2019,09,27,09,16,11.20
2019,09,27,09,17,11.30
2019,09,27,09,18,11.30
2019,09,27,09,19,11.30
2019,09,27,09,20,11.30
2019,09,27,09,21,11.30
2019,09,27,09,22,11.40
2019,09,27,09,23,11.40
2019,09,27,09,24,11.40
2019,09,27,09,25,11.50
2019,09,27,09,26,11.50
2019,09,27,09,27,11.50
2019,09,27,09,28,11.60
2019,09,27,09,29,11.60
2019,09,27,09,30,11.60
2019,09,27,09,31,11.60
2019,09,27,09,32,11.60
2019,09,27,09,33,11.70
2019,09,27,09,34,11.70
2019,09,27,09,35,11.70
2019,09,27,09,36,11.80
2019,09,27,09,37,11.80
2019,09,27,09,38,11.80
2019,09,27,09,39,11.80
2019,09,27,09,40,11.90
2019,09,27,09,41,11.90
2019,09,27,09,42,11.90
2019,09,27,09,43,11.90
2019,09,27,09,44,11.90
2019,09,27,09,45,11.90
2019,09,27,09,46,12.00
2019,09,27,09,47,12.00
2019,09,27,09,48,12.00
2019,09,27,09,49,12.00
2019,09,27,09,50,12.10
2019,09,27,09,51,12.10
2019,09,27,09,52,12.10
2019,09,27,09,53,12.10
2019,09,27,09,54,12.10
2019,09,27,09,55,12.10
2019,09,27,09,56,12.10
2019,09,27,09,57,12.10
2019,09,27,09,58,12.10
2019,09,27,09,59,12.00
2019,09,27,10,00,12.00
2019,09,27,10,01,12.00
2019,09,27,10,02,12.00
2019,09,27,10,03,12.00
2019,09,27,10,04,12.00
2019,09,27,10,05,12.00
2019,09,27,10,06,12.10
2019,09,27,10,07,12.10
2019,09,27,10,08,12.10
2019,09,27,10,09,12.20
2019,09,27,10,10,12.20
2019,09,27,10,11,12.30
2019,09,27,10,12,12.30
2019,09,27,10,13,12.30
2019,09,27,10,14,12.40
2019,09,27,10,15,12.40
2019,09,27,10,16,12.40
2019,09,27,10,17,12.50
2019,09,27,10,18,12.50
2019,09,27,10,19,12.50
2019,09,27,10,20,12.60
2019,09,27,10,21,12.60
2019,09,27,10,22,12.60
2019,09,27,10,23,12.60
2019,09,27,10,24,12.60
2019,09,27,10,25,12.60
2019,09,27,10,26,12.70
2019,09,27,10,27,12.70
2019,09,27,10,28,12.70
2019,09,27,10,29,12.70
2019,09,27,10,30,12.70
2019,09,27,10,31,12.80
2019,09,27,10,32,12.80
2019,09,27,10,33,12.80
2019,09,27,10,34,12.80
2019,09,27,10,35,12.80
2019,09,27,10,36,12.80
2019,09,27,10,37,12.80
2019,09,27,10,38,12.80
2019,09,27,10,39,12.80
2019,09,27,10,40,12.80
2019,09,27,10,41,12.80
2019,09,27,10,42,12.80
2019,09,27,10,43,12.90
2019,09,27,10,44,12.90
2019,09,27,10,45,12.90
2019,09,27,10,46,12.90
2019,09,27,10,47,12.90
2019,09,27,10,48,12.90
2019,09,27,10,49,12.90
2019,09,27,10,50,12.90
2019,09,27,10,51,12.90
2019,09,27,10,52,12.90
2019,09,27,10,53,12.90
2019,09,27,10,54,12.90
2019,09,27,10,55,13.00
2019,09,27,10,56,13.00
2019,09,27,10,57,13.00
2019,09,27,10,58,13.10
2019,09,27,10,59,13.10
2019,09,27,11,00,13.10
2019,09,27,11,01,13.10
2019,09,27,11,02,13.10
2019,09,27,11,03,13.20
2019,09,27,11,04,13.20
2019,09,27,11,05,13.20
2019,09,27,11,06,13.30
2019,09,27,11,07,13.30
2019,09,27,11,08,13.30
2019,09,27,11,09,13.30
2019,09,27,11,10,13.30
2019,09,27,11,11,13.30
2019,09,27,11,12,13.30
2019,09,27,11,13,13.30
2019,09,27,11,14,13.30
2019,09,27,11,15,13.40
2019,09,27,11,16,13.40
2019,09,27,11,17,13.40
2019,09,27,11,18,13.40
2019,09,27,11,19,13.50
2019,09,27,11,20,13.50
2019,09,27,11,21,13.50
2019,09,27,11,22,13.50
2019,09,27,11,23,13.50
2019,09,27,11,24,13.50
2019,09,27,11,25,13.50
2019,09,27,11,26,13.50
2019,09,27,11,27,13.50
2019,09,27,11,28,13.50
2019,09,27,11,29,13.50
2019,09,27,11,30,13.50
2019,09,27,11,31,13.50
2019,09,27,11,32,13.50
2019,09,27,11,33,13.40
2019,09,27,11,34,13.50
2019,09,27,11,35,13.50
2019,09,27,11,36,13.50
2019,09,27,11,37,13.50
2019,09,27,11,38,13.50
2019,09,27,11,39,13.50
2019,09,27,11,40,13.50
2019,09,27,11,41,13.50
2019,09,27,11,42,13.50
2019,09,27,11,43,13.40
2019,09,27,11,44,13.40
2019,09,27,11,45,13.40
2019,09,27,11,46,13.40
2019,09,27,11,47,13.40
2019,09,27,11,48,13.50
2019,09,27,11,49,13.50
2019,09,27,11,50,13.60
2019,09,27,11,51,13.60
2019,09,27,11,52,13.60
2019,09,27,11,53,13.70
2019,09,27,11,54,13.70
2019,09,27,11,55,13.80
2019,09,27,11,56,13.80
2019,09,27,11,57,13.80
2019,09,27,11,58,13.90
2019,09,27,11,59,13.90
2019,09,27,12,00,14.00
2019,09,27,12,01,14.00
2019,09,27,12,02,13.90
2019,09,27,12,03,13.90
2019,09,27,12,04,13.80
2019,09,27,12,05,13.80
2019,09,27,12,06,13.80
2019,09,27,12,07,13.90
2019,09,27,12,08,14.00
2019,09,27,12,09,14.00
2019,09,27,12,10,14.10
2019,09,27,12,11,14.20
2019,09,27,12,12,14.20
2019,09,27,12,13,14.10
2019,09,27,12,14,14.10
2019,09,27,12,15,14.00
2019,09,27,12,16,14.10
2019,09,27,12,17,14.10
2019,09,27,12,18,14.10
2019,09,27,12,19,14.20
2019,09,27,12,20,14.20
2019,09,27,12,21,14.20
2019,09,27,12,22,14.20
2019,09,27,12,23,14.20
2019,09,27,12,24,14.20
2019,09,27,12,25,14.20
2019,09,27,12,26,14.20
2019,09,27,12,27,14.20
2019,09,27,12,28,14.20
2019,09,27,12,29,14.10
2019,09,27,12,30,14.10
2019,09,27,12,31,14.10
2019,09,27,12,32,14.10
2019,09,27,12,33,14.10
2019,09,27,12,34,14.10
2019,09,27,12,35,14.00
2019,09,27,12,36,14.00
2019,09,27,12,37,13.90
2019,09,27,12,38,13.80
2019,09,27,12,39,13.80
2019,09,27,12,40,13.80
2019,09,27,12,41,13.80
2019,09,27,12,42,13.80
2019,09,27,12,43,13.90
2019,09,27,12,44,13.90
2019,09,27,12,45,13.90
2019,09,27,12,46,13.90
2019,09,27,12,47,13.90
2019,09,27,12,48,14.00
2019,09,27,12,49,14.00
2019,09,27,12,50,14.10
2019,09,27,12,51,14.20
2019,09,27,12,52,14.20
2019,09,27,12,53,14.30
2019,09,27,12,54,14.30
2019,09,27,12,55,14.30
2019,09,27,12,56,14.30
2019,09,27,12,57,14.30
2019,09,27,12,58,14.40
2019,09,27,12,59,14.40
2019,09,27,13,00,14.40
2019,09,27,13,01,14.40
2019,09,27,13,02,14.40
2019,09,27,13,03,14.40
2019,09,27,13,04,14.40
2019,09,27,13,05,14.40
2019,09,27,13,06,14.40
2019,09,27,13,07,14.40
2019,09,27,13,08,14.40
2019,09,27,13,09,14.50
2019,09,27,13,10,14.50
2019,09,27,13,11,14.50
2019,09,27,13,12,14.50
2019,09,27,13,13,14.50
2019,09,27,13,14,14.40
2019,09,27,13,15,14.40
2019,09,27,13,16,14.40
2019,09,27,13,17,14.30
2019,09,27,13,18,14.30
2019,09,27,13,19,14.20
2019,09,27,13,20,14.20
2019,09,27,13,21,14.10
2019,09,27,13,22,14.00
2019,09,27,13,23,14.00
2019,09,27,13,24,13.90
2019,09,27,13,25,13.80
2019,09,27,13,26,13.70
2019,09,27,13,27,13.70
2019,09,27,13,28,13.70
2019,09,27,13,29,13.60
2019,09,27,13,30,13.60
2019,09,27,13,31,13.50
2019,09,27,13,32,13.40
2019,09,27,13,33,13.40
2019,09,27,13,34,13.40
2019,09,27,13,35,13.30
2019,09,27,13,36,13.30
2019,09,27,13,37,13.20
2019,09,27,13,38,13.20
2019,09,27,13,39,13.20
2019,09,27,13,40,13.20
2019,09,27,13,41,13.20
2019,09,27,13,42,13.10
2019,09,27,13,43,13.10
2019,09,27,13,44,13.10
2019,09,27,13,45,13.10
2019,09,27,13,46,13.00
2019,09,27,13,47,13.00
2019,09,27,13,48,13.00
2019,09,27,13,49,13.00
2019,09,27,13,50,13.00
2019,09,27,13,51,13.00
2019,09,27,13,52,12.90
2019,09,27,13,53,12.90
2019,09,27,13,54,12.90
2019,09,27,13,55,12.90
2019,09,27,13,56,12.90
2019,09,27,13,57,12.90
2019,09,27,13,58,12.90
2019,09,27,13,59,12.90
2019,09,27,14,00,12.90
2019,09,27,14,01,12.90
2019,09,27,14,02,12.90
2019,09,27,14,03,12.90
2019,09,27,14,04,12.90
2019,09,27,14,05,12.90
2019,09,27,14,06,12.90
2019,09,27,14,07,12.90
2019,09,27,14,08,12.90
2019,09,27,14,09,12.90
2019,09,27,14,10,12.90
2019,09,27,14,11,12.90
2019,09,27,14,12,12.90
2019,09,27,14,13,12.90
2019,09,27,14,14,12.90
2019,09,27,14,15,12.90
2019,09,27,14,16,12.90
2019,09,27,14,17,12.80
2019,09,27,14,18,12.80
2019,09,27,14,19,12.80
2019,09,27,14,20,12.80
2019,09,27,14,21,12.80
2019,09,27,14,22,12.80
2019,09,27,14,23,12.70
2019,09,27,14,24,12.70
2019,09,27,14,25,12.70
2019,09,27,14,26,12.70
2019,09,27,14,27,12.70
2019,09,27,14,28,12.70
2019,09,27,14,29,12.80
2019,09,27,14,30,12.80
2019,09,27,14,31,12.80
2019,09,27,14,32,12.80
2019,09,27,14,33,12.80
2019,09,27,14,34,12.80
2019,09,27,14,35,12.80
2019,09,27,14,36,12.90
2019,09,27,14,37,12.90
2019,09,27,14,38,12.90
2019,09,27,14,39,12.90
2019,09,27,14,40,12.90
2019,09,27,14,41,12.90
2019,09,27,14,42,13.00
2019,09,27,14,43,13.00
2019,09,27,14,44,13.00
2019,09,27,14,45,13.00
2019,09,27,14,46,13.10
2019,09,27,14,47,13.10
2019,09,27,14,48,13.10
2019,09,27,14,49,13.20
2019,09,27,14,50,13.20
2019,09,27,14,51,13.20
2019,09,27,14,52,13.20
2019,09,27,14,53,13.20
2019,09,27,14,54,13.20
2019,09,27,14,55,13.20
2019,09,27,14,56,13.20
2019,09,27,14,57,13.20
2019,09,27,14,58,13.20
2019,09,27,14,59,13.20
2019,09,27,15,00,13.20
2019,09,27,15,01,13.20
2019,09,27,15,02,13.20
2019,09,27,15,03,13.20
2019,09,27,15,04,13.20
2019,09,27,15,05,13.20
2019,09,27,15,06,13.10
2019,09,27,15,07,13.10
2019,09,27,15,08,13.10
2019,09,27,15,09,13.10
2019,09,27,15,10,13.10
2019,09,27,15,11,13.10
2019,09,27,15,12,13.10
2019,09,27,15,13,13.10
2019,09,27,15,14,13.10
2019,09,27,15,15,13.10
2019,09,27,15,16,13.10
2019,09,27,15,17,13.10
2019,09,27,15,18,13.10
2019,09,27,15,19,13.10
2019,09,27,15,20,13.10
2019,09,27,15,21,13.10
2019,09,27,15,22,13.10
2019,09,27,15,23,13.10
2019,09,27,15,24,13.10
2019,09,27,15,25,13.10
2019,09,27,15,26,13.00
2019,09,27,15,27,13.00
2019,09,27,15,28,13.00
2019,09,27,15,29,13.00
2019,09,27,15,30,12.90
2019,09,27,15,31,12.90
2019,09,27,15,32,12.90
2019,09,27,15,33,12.80
2019,09,27,15,34,12.80
2019,09,27,15,35,12.80
2019,09,27,15,36,12.70
2019,09,27,15,37,12.70
2019,09,27,15,38,12.60
2019,09,27,15,39,12.60
2019,09,27,15,40,12.50
2019,09,27,15,41,12.50
2019,09,27,15,42,12.40
2019,09,27,15,43,12.40
2019,09,27,15,44,12.40
2019,09,27,15,45,12.30
2019,09,27,15,46,12.30
2019,09,27,15,47,12.20
2019,09,27,15,48,12.20
2019,09,27,15,49,12.10
2019,09,27,15,50,12.00
2019,09,27,15,51,12.00
2019,09,27,15,52,11.90
2019,09,27,15,53,11.80
2019,09,27,15,54,11.80
2019,09,27,15,55,11.70
2019,09,27,15,56,11.70
2019,09,27,15,57,11.70
2019,09,27,15,58,11.70
2019,09,27,15,59,11.70
2019,09,27,16,00,11.70
2019,09,27,16,01,11.70
2019,09,27,16,02,11.70
2019,09,27,16,03,11.70
2019,09,27,16,04,11.70
2019,09,27,16,05,11.70
2019,09,27,16,06,11.80
2019,09,27,16,07,11.80
2019,09,27,16,08,11.80
2019,09,27,16,09,11.80
2019,09,27,16,10,11.80
2019,09,27,16,11,11.90
2019,09,27,16,12,11.90
2019,09,27,16,13,11.90
2019,09,27,16,14,11.90
2019,09,27,16,15,11.90
2019,09,27,16,16,11.90
2019,09,27,16,17,11.90
2019,09,27,16,18,11.90
2019,09,27,16,19,11.90
2019,09,27,16,20,11.90
2019,09,27,16,21,11.90
2019,09,27,16,22,11.90
2019,09,27,16,23,11.90
2019,09,27,16,24,11.90
2019,09,27,16,25,11.90
2019,09,27,16,26,11.90
2019,09,27,16,27,11.90
2019,09,27,16,28,11.90
2019,09,27,16,29,11.90
2019,09,27,16,30,11.90
2019,09,27,16,31,11.90
2019,09,27,16,32,11.90
2019,09,27,16,33,12.00
2019,09,27,16,34,12.00
2019,09,27,16,35,12.00
2019,09,27,16,36,12.00
2019,09,27,16,37,12.00
2019,09,27,16,38,12.00
2019,09,27,16,39,12.00
2019,09,27,16,40,12.10
2019,09,27,16,41,12.10
2019,09,27,16,42,12.10
2019,09,27,16,43,12.10
2019,09,27,16,44,12.10
2019,09,27,16,45,12.10
2019,09,27,16,46,12.10
2019,09,27,16,47,12.10
2019,09,27,16,48,12.10
2019,09,27,16,49,12.10
2019,09,27,16,50,12.00
2019,09,27,16,51,12.00
2019,09,27,16,52,12.00
2019,09,27,16,53,12.00
2019,09,27,16,54,12.00
2019,09,27,16,55,12.00
2019,09,27,16,56,12.00
2019,09,27,16,57,12.00
2019,09,27,16,58,12.00
2019,09,27,16,59,12.00
2019,09,27,17,00,12.00
2019,09,27,17,01,12.00
2019,09,27,17,02,12.00
2019,09,27,17,03,12.00
2019,09,27,17,04,12.00
2019,09,27,17,05,12.00
2019,09,27,17,06,12.00
2019,09,27,17,07,12.00
2019,09,27,17,08,12.00
2019,09,27,17,09,12.00
2019,09,27,17,10,12.00
2019,09,27,17,11,12.00
2019,09,27,17,12,12.00
2019,09,27,17,13,12.00
2019,09,27,17,14,12.00
2019,09,27,17,15,12.00
2019,09,27,17,16,12.00
2019,09,27,17,17,12.10
2019,09,27,17,18,12.10
2019,09,27,17,19,12.10
2019,09,27,17,20,12.10
2019,09,27,17,21,12.10
2019,09,27,17,22,12.10
2019,09,27,17,23,12.10
2019,09,27,17,24,12.10
2019,09,27,17,25,12.10
2019,09,27,17,26,12.10
2019,09,27,17,27,12.10
2019,09,27,17,28,12.10
2019,09,27,17,29,12.10
2019,09,27,17,30,12.20
2019,09,27,17,31,12.20
2019,09,27,17,32,12.20
2019,09,27,17,33,12.20
2019,09,27,17,34,12.20
2019,09,27,17,35,12.20
2019,09,27,17,36,12.20
2019,09,27,17,37,12.20
2019,09,27,17,38,12.20
2019,09,27,17,39,12.20
2019,09,27,17,40,12.20